Location: Newark
(50.0821°N, 8.2414°E)
Time: 21:55:54
(UTC+00:00)

Tiangong 2 - Visible Passes

Search period start: 15 July 2019 00:00
Search period end: 25 July 2019 00:00
Orbit: 378 x 386 km, 42.8° (Epoch: 15 July)

Date Brightness Start Highest point End Pass type
(mag) Time Alt. Az. Time Alt. Az. Time Alt. Az.
15 Jul 3.1 21:39:07 10° SW 21:40:26 15° SSW 21:40:26 15° SSW visible
16 Jul 2.7 20:38:42 10° WSW 20:41:02 19° S 20:42:38 14° SSE visible
17 Jul 3.3 21:15:28 10° SW 21:16:54 12° SSW 21:16:58 12° SSW visible
18 Jul 3.0 20:14:45 10° SW 20:16:48 16° SSW 20:18:51 10° SSE visible
